Regional Weather Roundup
Issued by NWS Upton, NY

Current Version | Previous Version | Text Only | Print | Product List | Glossary On
Versions: 1 2 3 4 5 6 7 8 9 10 11 12 13 14 15 16 17 18 19 20 21 22 23 24 25 26 27 28 29 30 31 32 33 34 35 36 37 38 39 40 41 42 43 44 45 46 47
000
ASUS41 KOKX 270408
RWROKX

REGIONAL WEATHER ROUNDUP
NATIONAL WEATHER SERVICE NEW YORK NY
1200 AM EDT MON APR 27 2015

NOTE: "FAIR" INDICATES FEW OR NO CLOUDS BELOW 12,000 FEET WITH NO
SIGNIFICANT WEATHER AND/OR OBSTRUCTIONS TO VISIBILITY.

NYZ071-072-176-178-NJZ106-104-270500-
NEW YORK CITY METRO AREA


CITY           SKY/WX    TMP DP  RH WIND       PRES   REMARKS
CENTRAL PARK   CLEAR     52  28  39 VRB5      29.71S
LAGUARDIA APRT PTCLDY    52  32  46 NW10      29.68S
KENNEDY INTL   PTCLDY    53  27  36 NW10      29.69S
NEWARK/LIBERTY PTCLDY    51  29  42 NW7       29.69S
BRNX BOT. GARD   N/A     50  30  46 NW3       29.68S
TETERBORO      CLEAR     49  29  46 NW7       29.68S
$$

NYZ177-179-078>081-270500-
LONG ISLAND NEW YORK

CITY           SKY/WX    TMP DP  RH WIND       PRES   REMARKS
FARMINGDALE    MOCLDY    50  30  46 NW6       29.67S
ISLIP          PTCLDY    47  32  56 NW6       29.65S
SHIRLEY        MOCLDY    49  33  54 CALM      29.66F
WESTHAMPTON    CLOUDY    45  37  73 CALM      29.67S
MONTAUK POINT    N/A     51  38  60 W6        29.65S
$$

NYZ052-065-067-270500-
HUDSON VALLEY

CITY           SKY/WX    TMP DP  RH WIND       PRES   REMARKS
WHITE PLAINS   PTCLDY    48  29  47 NW9       29.66F
NEWBURGH       MOCLDY    48  32  53 CALM      29.69F
MONTGOMERY     MOCLDY    48  31  51 NW8       29.67F
POUGHKEEPSIE   CLOUDY    51  30  44 NW7       29.67F
ALBANY         CLOUDY    49  32  52 NW10      29.69S
$$

NJZ001-105-106-008-010-013-015-019>022-104-270500-
NEW JERSEY

CITY           SKY/WX    TMP DP  RH WIND       PRES   REMARKS
NEWARK/LIBERTY PTCLDY    51  29  42 NW7       29.69S
TETERBORO      CLEAR     49  29  46 NW7       29.68S
CALDWELL       CLEAR     45  29  53 CALM      29.70S
MORRISTOWN     CLEAR     48  28  46 CALM      29.70S
SOMERVILLE     PTCLDY    41  31  67 CALM      29.69F
SUSSEX         CLOUDY    49  30  48 NW6       29.71S
ANDOVER          N/A     49  30  48 N5        29.70S
TRENTON        CLEAR     49  25  39 W5        29.71S
MILLVILLE      CLEAR     37  33  85 CALM      29.73S
ATLANTIC CITY  CLEAR     42  32  67 NW5       29.73R
WRIGHTSTOWN    CLEAR     45  31  57 SW5       29.70S
TOMS RIVER     CLEAR     41  28  60 CALM      29.71R
BELMAR         CLEAR     46  27  46 W7        29.71R
$$

PAZ047>061-062-071-270500-
EASTERN PENNSYLVANIA

CITY           SKY/WX    TMP DP  RH WIND       PRES   REMARKS
PHILADELPHIA   PTCLDY    53  29  39 N5        29.75R
ALLENTOWN      CLEAR     45  29  53 NW5       29.73S
SCRANTON       CLOUDY    46  28  49 N8        29.73F
$$

CTZ002-004>006-009-010-012-RIZ004-006-007-MAZ004-011-015-270500-
SOUTHERN NEW ENGLAND
 IN CT

CITY           SKY/WX    TMP DP  RH WIND       PRES   REMARKS
BRADLEY INTL   CLOUDY    52  31  44 NW8       29.64S
HARTFORD       CLOUDY    52  31  44 NW8       29.65S
DANBURY        CLOUDY    50  27  40 CALM      29.67F
WTRBRY/OXFORD  CLOUDY    48  28  46 NW7       29.67S
BRIDGEPORT     PTCLDY    53  30  41 N10       29.65F
MERIDEN        CLOUDY    53  30  41 N7        29.66R
NEW HAVEN      CLOUDY    53  31  42 NW5       29.65S
CHESTER        CLOUDY    52  32  46 NW5       29.65S
GROTON         CLOUDY    52  30  43 NW7       29.63S
WILLIMANTIC    CLOUDY    52  30  43 NW6       29.64S

 IN RI

CITY           SKY/WX    TMP DP  RH WIND       PRES   REMARKS
PROVIDENCE     LGT RAIN  52  30  43 NW5       29.62S
BLOCK ISLAND   CLOUDY    48  34  57 W7        29.63S
WESTERLY       CLOUDY    50  32  50 CALM      29.63F

 IN MA

CITY           SKY/WX    TMP DP  RH WIND       PRES   REMARKS
BOSTON         CLOUDY    51  32  48 NW9       29.62S
WORCESTER      CLOUDY    48  29  47 N7        29.62F
WESTFIELD      CLOUDY    51  31  46 NW10      29.64F
PROVINCETOWN   CLOUDY   N/A N/A N/A W7        29.60S
NANTUCKET      CLOUDY    45  38  76 W10       29.61S
$$

ANZ330-335-338-340-345-350-353-355-270500-
COASTAL MARINE OBSERVATIONS


STATION/POSITION TIME  SKY/WX   TEMP    WIND        PRES    VSBY  WAVE
                                AIR SEA DIR/SP/G                  HT/PER
                 (UTC)          (F)     (DEG/KT/KT) (MB)    (MI)  (FT/S)
NY HARB ENTRANCE 0350            49 45  280/  8/ 10 1004.9          1/11
4S FIRE IS       0303               45                N/A           1/10
20S FIRE ISLAND  0350            47 44  270/ 14/ 16 1004.6          2/11
23SW MTP         0350            46 43  260/ 12/ 12 1003.8          2/11
HUDSON CANYON    NOT AVBL
EXECUTION ROCKS  NOT AVBL
WESTERN LI SOUND NOT AVBL
CENTRAL LI SOUND NOT AVBL
EASTERN LI SOUND 0300            50     310/  6/  8   N/A
ROBBINS REEF     0300            53     330/  9/ 12 1004.2
$$


>>>>>>>>>>>>>>>>>>>>>>>>>>>> KEY <<<<<<<<<<<<<<<<<<<<<<<<<<<
>                                                          <
>     SKY/WX - SKY CONDITION/PRESENT WEATHER               <
>     TMP    - TEMPERATURE IN FAHRENHEIT                   <
>     DP     - DEWPOINT IN FAHRENHEIT                      <
>     RH     - RELATIVE HUMIDITY IN PERCENT                <
>     WIND   - DIRECTION AND SPEED IN MPH                  <
>     PRES   - MEAN SEA LEVEL PRESSURE IN INCHES OF HG     <
>     WCI    - WIND CHILL INDEX                            <
>     VSB    - VISIBILITY IN MILES                         <
>     HX     - HEAT INDEX                                  <
>     TC     - TEMPERATURE IN CELSIUS                      <
>     VRB    - VARIABLE WIND DIRECTION                     <
>                                                          <
>>>>>>>>>>>>>>>>>>>>>>>>>>>> KEY <<<<<<<<<<<<<<<<<<<<<<<<<<<





USA.gov is the U.S. government's official web portal to all federal, state and local government web resources and services.